Newkirk, NM (88431)

1:23 PM MST on January 30, 2015 (GMT -0700)
Conchas Dam | Change Station
CLOSE
Current Station
Personal Weather Station
Location: Conchas, NM
Elevation: 4268 ft
Nearby Weather Stations
Active Advisory: Winter Storm Warning Active Notice: Public Information Statement

Elev 4268 ft 35.36 °N, 104.22 °W | Updated 1 minute ago

Snow
Snow
35.2 °F
Feels Like 35 °F
N
1.0
Wind Variable Wind from West
Gusts 2.0 mph

Today
High -- | Low -- °F
--% Chance of Precip.
Yesterday
High -- | Low -- °F
Precip. -- in
6:57 AM 5:23 PM
Waxing Gibbous, 85% visible
Pressure 30.30 in
Visibility 5.0 miles
Clouds Overcast 3500 ft
Windchill 35 °F
Dew Point 33 °F
Humidity 93%
Rainfall 0.05 in
Snow Depth Not available.
UV 1 out of 12
Pollen .90 out of 12
Air Quality Not available.
Flu Activity Not available.
METAR KTCC 301953Z AUTO 17003KT 5SM -RA BR OVC035 02/01 A3028 RMK AO2 RAB36SNE36 SLP259 P0002 T00170006

More Conditions Fewer Conditions

Pressure 30.30 in
Visibility 5.0 miles
Clouds Overcast 3500 ft
Windchill 35 °F
Dew Point 33 °F
Humidity 93%
Rainfall 0.05 in
Snow Depth Not available.
UV 1 out of 12
Pollen .90 out of 12
Air Quality Not available.
Flu Activity Not available.
METAR KTCC 301953Z AUTO 17003KT 5SM -RA BR OVC035 02/01 A3028 RMK AO2 RAB36SNE36 SLP259 P0002 T00170006

More Conditions Fewer Conditions

Nowcast | as of 12:03 PM MST on January 30, 2015

Through 2 PM MST...areas of rain and snow will continue across eastern New Mexico. Snow accumulations will be mostly confined along Interstate 25 from Las Vegas to Raton. New snow accumulations up to one inch are possible along the plains and Highlands interface. Elsewhere across the eastern plains...mostly rain is expected. Rain amounts will generally range from a trace to a tenth of an inch. For the latest Road conditions visit N M roads dot com or dial 5 1 1.

×

10-Day Weather Forecast

Almanac

Astronomy

Jan. 30, 2015 Rise Set
Actual Time
Civil Twilight
Nautical Twilight
Astronomical Twilight
Moon
Length of Visible Light
Length of Day
Tomorrow will be .
, % of the Moon is Illuminated

Today's Extremes

State Highs State Lows

Community

WunderPhotos

Upload Photos

1,791,887 photos uploaded!

WunderBlogs® & News

Nearby

Air Quality

  Air Quality AQ Index Pollutant
Not available.

Snow Depth

Station Depth Elevation

Earthquake Activity

City Distance Mag. Time & Date
Minimum magnitude displayed is 2.5.

Coastal Water Temperatures

Place Temperature

Nearby Weather Stations